FLTSATCOM 8 (USA 46)

Last updated on Thu Nov 21 2024 00:02:40 GMT+0000 (Coordinated Universal Time)

1 20253U 89077A 24325.56975727 -.00000369 00000+0 00000+0 0 9994 2 20253 12.5870 354.6009 0006157 257.7318 138.6313 1.00276275254811
UTC large
Height (km)
Speed (km/s)
/
Latitude / Longitude
Inclination (degrees)
Orbital Period (minutes)
Azimuth
Elevation
Range (km)
Doppler Factor

Next 0 passes for location: London (51.5072 / 0.1276)

Sorry there are no passes over London.